| time (UTC) | temp C | wind direction | speed KPH | gust KPH | rain 1hr cm | rain 24hr cm | rain mn cm | humidity % | barometer mb |
| 20260509084619 | 13 | 56 | 0.0 | 0.0 | 0.00 | 0.00 | 0.00 | 86 | 1007.7 |
| 20260509084502 | 13 | 56 | 0.0 | 0.0 | 0.00 | 0.00 | 0.00 | 86 | 1007.7 |
| 20260509083046 | 13 | 34 | 0.0 | 0.0 | 0.00 | 0.00 | 0.00 | 85 | 1007.5 |
| 20260509081522 | 13 | 5 | 0.0 | 0.0 | 0.00 | 0.00 | 0.00 | 84 | 1008.0 |
| 20260509080024 | 13 | 355 | 0.0 | 0.0 | 0.00 | 0.00 | 0.00 | 83 | 1007.6 |
| 20260509074528 | 13 | 355 | 0.0 | 0.0 | 0.00 | 0.00 | 0.00 | 81 | 1007.7 |
| 20260509073031 | 13 | 355 | 0.0 | 0.0 | 0.00 | 0.00 | 0.00 | 80 | 1007.7 |
| 20260509071530 | 13 | 257 | 0.0 | 0.0 | 0.00 | 0.00 | 0.00 | 77 | 1007.7 |
| 20260509070046 | 13 | 252 | 0.0 | 0.0 | 0.00 | 0.00 | 0.00 | 78 | 1007.8 |
| 20260509064528 | 13 | 252 | 0.0 | 0.0 | 0.00 | 0.00 | 0.00 | 77 | 1008.0 |
| 20260509063010 | 13 | 252 | 0.0 | 0.0 | 0.00 | 0.00 | 0.00 | 76 | 1008.0 |
| 20260509061515 | 14 | 252 | 0.0 | 0.0 | 0.00 | 0.00 | 0.00 | 76 | 1008.0 |
| 20260509060014 | 14 | 252 | 0.0 | 0.0 | 0.00 | 0.00 | 0.00 | 74 | 1008.1 |
| 20260509054613 | 14 | 252 | 0.0 | 0.0 | 0.00 | 0.00 | 0.00 | 74 | 1008.4 |
| 20260509053106 | 14 | 252 | 0.0 | 0.0 | 0.00 | 0.00 | 0.00 | 74 | 1008.5 |
| 20260509051549 | 15 | 252 | 0.0 | 0.0 | 0.00 | 0.00 | 0.00 | 71 | 1008.3 |
| 20260509050040 | 15 | 252 | 0.0 | 0.0 | 0.00 | 0.00 | 0.00 | 71 | 1008.3 |
| 20260509044546 | 15 | 252 | 0.0 | 0.0 | 0.00 | 0.00 | 0.00 | 69 | 1008.2 |
| 20260509043038 | 15 | 252 | 0.0 | 0.0 | 0.00 | 0.00 | 0.00 | 67 | 1008.2 |
| 20260509041524 | 16 | 252 | 0.0 | 0.0 | 0.00 | 0.00 | 0.00 | 65 | 1008.3 |
| 20260509040014 | 16 | 252 | 0.0 | 0.0 | 0.00 | 0.00 | 0.00 | 64 | 1008.3 |
| 20260509034601 | 17 | 252 | 0.0 | 0.0 | 0.00 | 0.00 | 0.00 | 60 | 1008.3 |
| 20260509033056 | 17 | 252 | 0.0 | 0.0 | 0.00 | 0.00 | 0.00 | 56 | 1008.4 |
| 20260509031605 | 17 | 252 | 0.0 | 0.0 | 0.00 | 0.00 | 0.00 | 55 | 1008.5 |
| 20260509030036 | 17 | 252 | 0.0 | 0.0 | 0.00 | 0.00 | 0.00 | 54 | 1008.8 |
| 20260509024530 | 17 | 252 | 0.0 | 0.0 | 0.00 | 0.00 | 0.00 | 52 | 1008.9 |
| 20260509023016 | 17 | 167 | 0.0 | 0.0 | 0.00 | 0.00 | 0.00 | 56 | 1009.0 |
| 20260509021506 | 17 | 151 | 0.0 | 0.0 | 0.00 | 0.00 | 0.00 | 54 | 1009.0 |
| 20260509020053 | 17 | 151 | 0.0 | 0.0 | 0.00 | 0.00 | 0.00 | 55 | 1008.9 |
| 20260509014543 | 16 | 164 | 0.0 | 0.0 | 0.00 | 0.00 | 0.00 | 60 | 1008.9 |
| 20260509013023 | 17 | 164 | 0.0 | 0.0 | 0.00 | 0.00 | 0.00 | 59 | 1009.0 |
| 20260509011528 | 17 | 164 | 0.0 | 0.0 | 0.00 | 0.00 | 0.00 | 58 | 1008.8 |
| 20260509010018 | 18 | 164 | 0.0 | 0.0 | 0.00 | 0.00 | 0.00 | 54 | 1008.9 |
| 20260509004509 | 18 | 164 | 0.0 | 0.0 | 0.00 | 0.00 | 0.00 | 52 | 1009.0 |
| 20260509003104 | 19 | 164 | 0.0 | 0.0 | 0.00 | 0.00 | 0.00 | 49 | 1009.0 |
| 20260509001601 | 19 | 165 | 0.0 | 0.0 | 0.00 | 0.00 | 0.00 | 48 | 1009.1 |
| 20260509000054 | 20 | 146 | 0.0 | 0.0 | 0.00 | 0.00 | 0.00 | 47 | 1009.1 |
| 20260508234549 | 20 | 227 | 1.6 | 14.5 | 0.00 | 0.00 | 0.00 | 45 | 1009.2 |
| 20260508233032 | 20 | 180 | 0.0 | 6.4 | 0.00 | 0.00 | 0.00 | 45 | 1009.1 |
| 20260508231516 | 20 | 231 | 1.6 | 12.9 | 0.00 | 0.00 | 0.00 | 44 | 1009.2 |
| 20260508230004 | 21 | 157 | 0.0 | 12.9 | 0.00 | 0.00 | 0.00 | 44 | 1009.2 |
| 20260508224604 | 20 | 136 | 0.0 | 9.7 | 0.00 | 0.00 | 0.00 | 46 | 1009.1 |
| 20260508223102 | 21 | 232 | 0.0 | 14.5 | 0.00 | 0.00 | 0.00 | 44 | 1009.4 |
| 20260508221554 | 21 | 207 | 0.0 | 24.1 | 0.00 | 0.00 | 0.00 | 43 | 1009.3 |
| 20260508220124 | 21 | 214 | 1.6 | 19.3 | 0.00 | 0.00 | 0.00 | 43 | 1009.1 |
| 20260508214558 | 21 | 167 | 0.0 | 19.3 | 0.00 | 0.00 | 0.00 | 44 | 1009.0 |
| 20260508213037 | 21 | 186 | 3.2 | 12.9 | 0.00 | 0.00 | 0.00 | 42 | 1009.2 |
| 20260508211541 | 21 | 136 | 1.6 | 19.3 | 0.00 | 0.00 | 0.00 | 41 | 1009.3 |
| 20260508210019 | 21 | 153 | 0.0 | 16.1 | 0.00 | 0.00 | 0.00 | 43 | 1009.6 |
| 20260508204526 | 21 | 246 | 0.0 | 16.1 | 0.00 | 0.00 | 0.00 | 42 | 1009.9 |
| 20260508203018 | 21 | 244 | 3.2 | 16.1 | 0.00 | 0.00 | 0.00 | 41 | 1010.0 |
| 20260508201525 | 21 | 157 | 3.2 | 12.9 | 0.00 | 0.00 | 0.00 | 43 | 1010.2 |
| 20260508200017 | 21 | 194 | 1.6 | 11.3 | 0.00 | 0.00 | 0.00 | 41 | 1010.5 |
| 20260508194517 | 21 | 203 | 3.2 | 12.9 | 0.00 | 0.00 | 0.00 | 42 | 1010.9 |
| 20260508193005 | 21 | 221 | 3.2 | 11.3 | 0.00 | 0.00 | 0.00 | 40 | 1011.1 |
| 20260508191510 | 21 | 194 | 4.8 | 14.5 | 0.00 | 0.00 | 0.00 | 41 | 1011.3 |
| 20260508190012 | 21 | 189 | 0.0 | 11.3 | 0.00 | 0.00 | 0.00 | 43 | 1011.7 |
| 20260508184505 | 21 | 298 | 3.2 | 30.6 | 0.00 | 0.00 | 0.00 | 39 | 1011.9 |
| 20260508183004 | 21 | 138 | 3.2 | 14.5 | 0.00 | 0.00 | 0.00 | 42 | 1011.6 |
| 20260508181611 | 20 | 186 | 0.0 | 16.1 | 0.00 | 0.00 | 0.00 | 43 | 1011.4 |
| 20260508180002 | 20 | 236 | 1.6 | 12.9 | 0.00 | 0.00 | 0.00 | 42 | 1011.7 |
| 20260508174601 | 20 | 216 | 1.6 | 16.1 | 0.00 | 0.00 | 0.00 | 41 | 1012.0 |
| 20260508173042 | 20 | 238 | 0.0 | 14.5 | 0.00 | 0.00 | 0.00 | 44 | 1012.4 |
| 20260508171518 | 20 | 207 | 1.6 | 14.5 | 0.00 | 0.00 | 0.00 | 42 | 1012.9 |
| 20260508170013 | 20 | 150 | 1.6 | 11.3 | 0.00 | 0.00 | 0.00 | 43 | 1013.0 |
| 20260508164509 | 20 | 181 | 1.6 | 11.3 | 0.00 | 0.00 | 0.00 | 45 | 1013.4 |
| 20260508163002 | 20 | 234 | 0.0 | 11.3 | 0.00 | 0.00 | 0.00 | 46 | 1013.8 |
| 20260508161553 | 18 | 314 | 3.2 | 11.3 | 0.00 | 0.00 | 0.00 | 46 | 1014.0 |
| 20260508160052 | 18 | 149 | 0.0 | 12.9 | 0.00 | 0.00 | 0.00 | 47 | 1014.2 |
| 20260508154545 | 18 | 219 | 1.6 | 16.1 | 0.00 | 0.00 | 0.00 | 47 | 1014.4 |
| 20260508153033 | 18 | 271 | 0.0 | 14.5 | 0.00 | 0.00 | 0.00 | 48 | 1014.6 |
| 20260508151544 | 17 | 242 | 1.6 | 12.9 | 0.00 | 0.00 | 0.00 | 47 | 1014.9 |
| 20260508150037 | 17 | 225 | 0.0 | 8.0 | 0.00 | 0.00 | 0.00 | 50 | 1015.0 |
| 20260508144554 | 16 | 274 | 1.6 | 14.5 | 0.00 | 0.00 | 0.00 | 49 | 1015.3 |
| 20260508143040 | 16 | 221 | 3.2 | 20.9 | 0.00 | 0.00 | 0.00 | 50 | 1015.5 |
| 20260508141535 | 16 | 253 | 4.8 | 16.1 | 0.00 | 0.00 | 0.00 | 51 | 1015.5 |
| 20260508140044 | 15 | 254 | 4.8 | 20.9 | 0.00 | 0.00 | 0.00 | 53 | 1015.3 |
| 20260508134534 | 15 | 153 | 0.0 | 3.2 | 0.00 | 0.00 | 0.00 | 56 | 1015.4 |
| 20260508133032 | 14 | 248 | 0.0 | 8.0 | 0.00 | 0.00 | 0.00 | 56 | 1015.4 |
| 20260508131525 | 13 | 275 | 0.0 | 6.4 | 0.00 | 0.00 | 0.00 | 59 | 1015.4 |
| 20260508130015 | 13 | 240 | 0.0 | 8.0 | 0.00 | 0.00 | 0.00 | 60 | 1015.3 |
| 20260508124524 | 12 | 246 | 0.0 | 3.2 | 0.00 | 0.00 | 0.00 | 63 | 1015.3 |
| 20260508123029 | 11 | 238 | 0.0 | 1.6 | 0.00 | 0.00 | 0.00 | 73 | 1015.3 |
| 20260508121534 | 9 | 312 | 0.0 | 0.0 | 0.00 | 0.00 | 0.00 | 87 | 1015.3 |
| 20260508120043 | 7 | 321 | 0.0 | 0.0 | 0.00 | 0.00 | 0.00 | 93 | 1015.2 |
| 20260508114546 | 5 | 321 | 0.0 | 0.0 | 0.00 | 0.00 | 0.00 | 94 | 1015.1 |
| 20260508113016 | 4 | 321 | 0.0 | 0.0 | 0.00 | 0.00 | 0.00 | 94 | 1014.9 |
| 20260508111557 | 3 | 321 | 0.0 | 0.0 | 0.00 | 0.00 | 0.00 | 93 | 1014.9 |
| 20260508110056 | 3 | 321 | 0.0 | 0.0 | 0.00 | 0.00 | 0.00 | 93 | 1014.8 |
| 20260508104513 | 3 | 321 | 0.0 | 0.0 | 0.00 | 0.00 | 0.00 | 93 | 1014.7 |
| 20260508103058 | 3 | 321 | 0.0 | 0.0 | 0.00 | 0.00 | 0.00 | 93 | 1014.6 |
| 20260508101600 | 3 | 321 | 0.0 | 0.0 | 0.00 | 0.00 | 0.00 | 92 | 1014.6 |
| 20260508100052 | 3 | 321 | 0.0 | 0.0 | 0.00 | 0.00 | 0.00 | 92 | 1014.6 |
| 20260508094604 | 3 | 321 | 0.0 | 0.0 | 0.00 | 0.00 | 0.00 | 92 | 1014.6 |
| 20260508093045 | 3 | 321 | 0.0 | 0.0 | 0.00 | 0.00 | 0.00 | 92 | 1014.6 |
| 20260508091541 | 3 | 321 | 0.0 | 0.0 | 0.00 | 0.00 | 0.00 | 92 | 1014.7 |